Regional Weather Roundup
Issued by NWS Albany, NY

Home | Current Version | Previous Version | Text Only | Print | Product List | Glossary On
Versions: 1 2 3 4 5 6 7 8 9 10 11 12 13 14 15 16 17 18 19 20 21 22 23 24 25 26 27 28 29 30 31 32 33 34 35 36 37 38 39 40 41 42 43 44 45 46 47 48 49 50
000
ASUS41 KALY 161010
RWRALY

NEW YORK STATE HOURLY WEATHER ROUNDUP
NATIONAL WEATHER SERVICE ALBANY NY
500 AM EST SUN DEC 16 2018

NOTE: "FAIR" INDICATES FEW OR NO CLOUDS BELOW 12,000 FEET WITH NO
SIGNIFICANT WEATHER AND/OR NO OBSTRUCTIONS TO VISIBILITY.

NYZ032-033-038>043-046>054-057>066-NYZ062>081-082-084-161100-
EAST


CITY           SKY/WX    TMP DP  RH WIND       PRES   REMARKS
ALBANY         CLOUDY    31  27  85 N5        30.18F WCI  26
GLENS FALLS    FAIR      30  26  85 NE5       30.18F WCI  25
POUGHKEEPSIE   CLOUDY    36  27  69 N8        30.14S WCI  30
NEWBURGH       CLOUDY    37  30  75 E9        30.12F WCI  31
MONTGOMERY     LGT RAIN  36  29  75 NE13      30.09F WCI  27
WHITE PLAINS   LGT RAIN  38  34  85 E13       30.06F WCI  30
ISLIP          LGT RAIN  41  38  89 NE13      30.09S
NEW YORK CITY  LGT RAIN  41  36  82 NE20G28   30.09R
CENTRAL PARK   RAIN      40  36  86 MISG      30.11R FOG
$$

NYZ005>009-017-018-044>046-055-056-161100-
CENTRAL


CITY           SKY/WX    TMP DP  RH WIND       PRES   REMARKS
FULTON         FAIR      34  27  75 E3        30.10F
SYRACUSE       CLOUDY    32  28  85 NE8       30.10F WCI  25
ROME           FAIR      31  29  92 E3        30.13F
ELMIRA         LGT RAIN  36  32  85 NE8       30.02F FOG     WCI  30
BINGHAMTON     CLOUDY    32  27  81 CALM      30.04R
MONTICELLO     LGT RAIN  33  28  81 E13G22    30.07R WCI  24
$$

NYZ026>034-041>043-087-161100-
NORTH


CITY           SKY/WX    TMP DP  RH WIND       PRES   REMARKS
WATERTOWN      FAIR      27  25  92 NE6       30.13F WCI  20
FORT DRUM      NOT AVBL
MASSENA        FAIR      21  20  96 NE5       30.20F WCI  15
SARANAC LAKE   FAIR      22  21  96 CALM      30.10F
PLATTSBURGH    MOCLDY    22  21  96 CALM      30.20F
$$

NYZ001>004-010>016-019>021-085-161100-
WEST


CITY           SKY/WX    TMP DP  RH WIND       PRES   REMARKS
NIAGARA FALLS  FAIR      34  32  92 NE7       30.06S WCI  28
BUFFALO        CLOUDY    34  31  88 NE8       30.04F WCI  27
DUNKIRK        FAIR      33  31  92 E3        30.04R
JAMESTOWN      LGT RAIN  36  28  73 E6        29.98S WCI  31
WELLSVILLE     MIX PCPN  32  32 100 SE3       30.00S FOG
ROCHESTER      CLOUDY    35  32  88 E7        30.07F WCI  29
PENN YAN       CLOUDY    33  30  88 CALM      30.06F
$$

             KEY
       WCI = WIND CHILL INDEX
       VSB = VISIBILITY
       HX  = HEAT INDEX
$$



USA.gov is the U.S. government's official web portal to all federal, state and local government web resources and services.